Weather History for KPRO - April, 2012

Change the Weather History Date:

Tuesday, April 24, 2012

  Actual Average Record
Temperature  
Mean Temperature 66 °F -  
Max Temperature 87 °F 64 °F 87 °F (2012)
Min Temperature 44 °F 39 °F 18 °F (1956)
Growing Degree Days 16 (Base 50)    
Moisture  
Dew Point 43 °F    
Average Humidity 48    
Maximum Humidity 80    
Minimum Humidity 15    
Precipitation  
Precipitation 0.00 in - - ()
Sea Level Pressure  
Sea Level Pressure 29.67 in    
Wind  
Wind Speed 7 mph (South)    
Max Wind Speed 12 mph    
Max Gust Speed -    
Visibility 10 miles    
Events      
Averages and records for this station are not official NWS values.
T = Trace of Precipitation, MM = Missing Value Source: NWS Daily Summary

Daily Weather History Graph

Daily Weather History Graph

Search for Another Location

Airport or City:

Trip Planner

Search our weather history database for the weather conditions in past years. The results will help you decide how hot, cold, wet, or windy it might be!

Date:

Astronomy

Apr. 24, 2012 Rise Set
Actual Time 6:21 AM CDT 8:08 PM CDT
Civil Twilight 5:52 AM CDT 8:37 PM CDT
Nautical Twilight 5:16 AM CDT 9:14 PM CDT
Astronomical Twilight 4:37 AM CDT 9:53 PM CDT
Moon 8:15 AM CDT (4/24) 11:31 PM CDT (4/24)
Length of Visible Light 14h 45m
Length of Day
13h 46m
Waxing Crescent, 10% of the Moon is Illuminated
Apr 24
Waxing Crescent
Apr 29
First Quarter
May 5
Full
May 12
Last Quarter
May 20
New

Hourly Weather History & Observations

Time (CDT) Temp. Windchill Dew Point Humidity Pressure Visibility Wind Dir Wind Speed Gust Speed Precip Events Conditions
12:15 AM 52.7 °F - 36.5 °F 54% 29.88 in 10.0 mi SW 10.4 mph - N/A   Clear
12:35 AM 53.1 °F - 36.9 °F 54% 29.87 in 10.0 mi SW 11.5 mph - N/A   Clear
12:55 AM 53.6 °F - 36.5 °F 52% 29.87 in 10.0 mi SW 10.4 mph - N/A   Clear
1:15 AM 51.4 °F - 37.6 °F 59% 29.86 in 10.0 mi SSW 9.2 mph - N/A   Clear
1:35 AM 50.2 °F - 38.3 °F 64% 29.86 in 10.0 mi SSW 10.4 mph - N/A   Clear
1:55 AM 49.1 °F - 38.7 °F 67% 29.85 in 10.0 mi SSW 9.2 mph - N/A   Clear
2:15 AM 48.7 °F - 38.7 °F 68% 29.84 in 10.0 mi SSW 9.2 mph - N/A   Clear
2:35 AM 48.6 °F - 38.5 °F 68% 29.83 in 10.0 mi SSW 9.2 mph - N/A   Clear
2:55 AM 49.1 °F - 38.3 °F 66% 29.83 in 10.0 mi SSW 9.2 mph - N/A   Clear
3:15 AM 47.7 °F - 38.5 °F 70% 29.82 in 10.0 mi South 6.9 mph - N/A   Clear
3:35 AM 48.7 °F - 38.5 °F 68% 29.82 in 10.0 mi South 8.1 mph - N/A   Clear
4:15 AM 48.2 °F - 38.3 °F 69% 29.81 in 10.0 mi SSE 8.1 mph - N/A   Clear
4:35 AM 47.5 °F - 38.5 °F 71% 29.80 in 10.0 mi SSE 5.8 mph - N/A   Clear
4:55 AM 45.9 °F 42.3 °F 38.8 °F 76% 29.80 in 10.0 mi SSE 6.9 mph - N/A   Clear
5:15 AM 45.5 °F 43.2 °F 38.8 °F 78% 29.79 in 10.0 mi SE 4.6 mph - N/A   Clear
5:35 AM 46.4 °F 43.5 °F 38.5 °F 74% 29.78 in 10.0 mi SSE 5.8 mph - N/A   Clear
5:55 AM 45.3 °F 43.0 °F 38.7 °F 78% 29.77 in 10.0 mi SSE 4.6 mph - N/A   Clear
6:15 AM 45.3 °F 41.6 °F 38.7 °F 78% 29.76 in 10.0 mi SSE 6.9 mph - N/A   Clear
6:35 AM 44.8 °F 41.6 °F 38.8 °F 80% 29.76 in 10.0 mi SSE 5.8 mph - N/A   Clear
6:55 AM 45.5 °F 42.5 °F 39.7 °F 80% 29.75 in 10.0 mi SSE 5.8 mph - N/A   Clear
7:15 AM 47.8 °F - 40.3 °F 75% 29.75 in 10.0 mi SSE 4.6 mph - N/A   Clear
7:35 AM 50.0 °F - 41.2 °F 72% 29.74 in 10.0 mi SSE 4.6 mph - N/A   Clear
7:55 AM 52.2 °F - 41.4 °F 67% 29.74 in 10.0 mi SSE 5.8 mph - N/A   Clear
8:15 AM 55.4 °F - 43.2 °F 63% 29.73 in 10.0 mi South 4.6 mph - N/A   Clear
8:35 AM 58.8 °F - 44.2 °F 58% 29.72 in 10.0 mi South 5.8 mph - N/A   Clear
8:55 AM 63.0 °F - 44.1 °F 50% 29.72 in 10.0 mi SW 10.4 mph - N/A   Clear
9:15 AM 65.1 °F - 44.4 °F 47% 29.71 in 10.0 mi SW 9.2 mph - N/A   Clear
9:35 AM 66.4 °F - 44.6 °F 45% 29.70 in 10.0 mi SW 8.1 mph - N/A   Clear
9:55 AM 68.0 °F - 45.0 °F 43% 29.69 in 10.0 mi SW 8.1 mph - N/A   Clear
10:15 AM 69.4 °F - 45.1 °F 42% 29.69 in 10.0 mi SW 5.8 mph - N/A   Clear
10:35 AM 70.7 °F - 45.5 °F 40% 29.68 in 10.0 mi SW 6.9 mph - N/A   Clear
10:55 AM 72.3 °F - 45.1 °F 38% 29.68 in 10.0 mi West 3.5 mph - N/A   Clear
11:15 AM 73.8 °F - 46.8 °F 38% 29.67 in 10.0 mi WSW 8.1 mph - N/A   Clear
11:35 AM 75.0 °F - 46.0 °F 36% 29.66 in 10.0 mi SSW 6.9 mph - N/A   Clear
11:55 AM 76.1 °F - 45.7 °F 34% 29.65 in 10.0 mi South 5.8 mph - N/A   Clear
12:15 PM 77.9 °F - 46.2 °F 33% 29.65 in 10.0 mi SSW 5.8 mph - N/A   Clear
12:35 PM 78.4 °F - 45.9 °F 32% 29.64 in 10.0 mi SW 4.6 mph - N/A   Clear
12:55 PM 79.9 °F - 46.0 °F 30% 29.63 in 10.0 mi Calm Calm - N/A   Clear
1:15 PM 80.8 °F - 44.4 °F 28% 29.63 in 10.0 mi South 4.6 mph - N/A   Clear
1:35 PM 81.5 °F - 44.6 °F 27% 29.62 in 10.0 mi SSE 6.9 mph - N/A   Clear
1:55 PM 82.4 °F - 45.3 °F 27% 29.61 in 10.0 mi SE 5.8 mph - N/A   Clear
2:15 PM 83.3 °F - 44.8 °F 26% 29.61 in 10.0 mi South 4.6 mph - N/A   Clear
2:35 PM 84.0 °F - 44.4 °F 25% 29.60 in 10.0 mi Calm Calm - N/A   Clear
2:55 PM 84.6 °F - 45.5 °F 25% 29.60 in 7.0 mi SSE 6.9 mph - N/A   Clear
3:15 PM 85.1 °F - 44.4 °F 24% 29.60 in 10.0 mi NW 6.9 mph - N/A   Clear
3:35 PM 86.2 °F - 45.3 °F 24% 29.59 in 10.0 mi ESE 4.6 mph - N/A   Clear
3:55 PM 85.8 °F - 43.7 °F 23% 29.59 in 10.0 mi NNW 3.5 mph - N/A   Clear
4:15 PM 86.5 °F - 43.9 °F 22% 29.58 in 10.0 mi NE 4.6 mph - N/A   Clear
4:35 PM 86.7 °F - 42.3 °F 21% 29.58 in 7.0 mi NNE 3.5 mph - N/A   Clear
4:55 PM 87.3 °F - 39.9 °F 19% 29.57 in 10.0 mi Calm Calm - N/A   Clear
5:15 PM 87.4 °F - 39.7 °F 19% 29.57 in 10.0 mi Calm Calm - N/A   Clear
5:35 PM 87.3 °F - 38.3 °F 18% 29.57 in 10.0 mi Calm Calm - N/A   Clear
5:55 PM 87.8 °F - 39.6 °F 18% 29.57 in 3.0 mi NNW 4.6 mph - N/A   Haze
6:15 PM 87.6 °F - 39.7 °F 19% 29.56 in 10.0 mi Calm Calm - N/A   Clear
6:35 PM 87.3 °F - 37.6 °F 17% 29.56 in 10.0 mi Calm Calm - N/A   Clear
6:55 PM 86.9 °F - 34.0 °F 15% 29.56 in 10.0 mi NNW 8.1 mph - N/A   Clear
7:15 PM 85.3 °F - 36.5 °F 18% 29.55 in 10.0 mi Calm Calm - N/A   Clear
7:35 PM 83.5 °F - 37.2 °F 19% 29.55 in 10.0 mi ENE 4.6 mph - N/A   Clear
7:55 PM 80.2 °F - 49.5 °F 34% 29.55 in 10.0 mi East 5.8 mph - N/A   Clear
8:15 PM 77.2 °F - 51.4 °F 41% 29.55 in 10.0 mi ESE 5.8 mph - N/A   Clear
8:35 PM 74.7 °F - 52.5 °F 46% 29.55 in 10.0 mi SE 5.8 mph - N/A   Clear
8:55 PM 72.0 °F - 53.6 °F 52% 29.56 in 10.0 mi SE 6.9 mph - N/A   Clear
9:15 PM 70.7 °F - 53.8 °F 55% 29.56 in 10.0 mi East 5.8 mph - N/A   Clear
9:35 PM 68.7 °F - 54.1 °F 60% 29.56 in 10.0 mi ESE 5.8 mph - N/A   Clear
9:55 PM 67.1 °F - 54.1 °F 63% 29.57 in 10.0 mi ESE 5.8 mph - N/A   Clear
10:15 PM 66.6 °F - 53.8 °F 63% 29.57 in 10.0 mi SE 5.8 mph - N/A   Clear
10:35 PM 66.7 °F - 53.2 °F 62% 29.57 in 10.0 mi South 3.5 mph - N/A   Clear
10:55 PM 64.8 °F - 52.7 °F 65% 29.57 in 10.0 mi South 6.9 mph - N/A   Clear
11:15 PM 64.6 °F - 52.7 °F 65% 29.57 in 10.0 mi SE 4.6 mph - N/A   Clear
11:35 PM 63.3 °F - 52.7 °F 68% 29.57 in 10.0 mi ESE 4.6 mph - N/A   Clear
11:55 PM 63.7 °F - 52.5 °F 67% 29.57 in 10.0 mi SE 4.6 mph - N/A   Clear